Time,TemperatureF,DewpointF,PressureIn,WindDirection,WindDirectionDegrees,WindSpeedMPH,WindSpeedGustMPH,Humidity,HourlyPrecipIn,Conditions,Clouds,dailyrainin,SoftwareType,DateUTC
2013-06-08 00:04:00,56.0,49.9,29.79,South,169,0.0,0.0,80,0.00,CLR,,0.00,WeatherDisplay:10.37,2013-06-08 07:04:00,
2013-06-08 00:09:00,56.0,49.9,29.79,South,169,0.0,0.0,80,0.00,CLR,,0.00,WeatherDisplay:10.37,2013-06-08 07:09:00,
2013-06-08 00:19:00,55.9,50.2,29.79,South,169,0.0,0.0,81,0.00,CLR,,0.00,WeatherDisplay:10.37,2013-06-08 07:19:00,
2013-06-08 00:29:00,55.9,49.8,29.78,South,169,0.0,0.0,80,0.00,CLR,,0.00,WeatherDisplay:10.37,2013-06-08 07:29:00,
2013-06-08 00:39:00,55.8,50.1,29.78,South,169,0.0,0.0,81,0.00,CLR,,0.00,WeatherDisplay:10.37,2013-06-08 07:39:00,
2013-06-08 00:49:00,55.7,50.0,29.78,South,169,0.0,0.0,81,0.00,CLR,,0.00,WeatherDisplay:10.37,2013-06-08 07:49:00,
2013-06-08 00:59:00,55.7,49.9,29.78,South,169,0.0,0.0,81,0.00,CLR,,0.00,WeatherDisplay:10.37,2013-06-08 07:59:00,
2013-06-08 01:04:00,55.6,49.9,29.78,South,169,0.0,0.0,81,0.00,OVC,,0.00,WeatherDisplay:10.37,2013-06-08 08:04:00,
2013-06-08 01:09:00,55.6,49.9,29.78,South,169,0.0,0.0,81,0.00,OVC,,0.00,WeatherDisplay:10.37,2013-06-08 08:09:00,
2013-06-08 01:19:00,55.5,49.8,29.78,South,169,0.0,0.0,81,0.00,OVC,,0.00,WeatherDisplay:10.37,2013-06-08 08:19:00,
2013-06-08 01:29:00,55.4,49.7,29.78,South,169,0.0,0.0,81,0.00,OVC,,0.00,WeatherDisplay:10.37,2013-06-08 08:29:00,
2013-06-08 01:39:00,55.3,49.9,29.78,South,169,0.0,0.0,82,0.00,OVC,,0.00,WeatherDisplay:10.37,2013-06-08 08:39:00,
2013-06-08 01:49:00,55.3,49.9,29.78,South,169,0.0,0.0,82,0.00,OVC,,0.00,WeatherDisplay:10.37,2013-06-08 08:49:00,
2013-06-08 01:59:00,55.2,49.8,29.78,South,169,0.0,1.0,82,0.00,OVC,,0.00,WeatherDisplay:10.37,2013-06-08 08:59:00,
2013-06-08 02:04:00,55.1,49.7,29.78,South,169,0.0,1.0,82,0.00,CLR,,0.00,WeatherDisplay:10.37,2013-06-08 09:04:00,
2013-06-08 02:09:00,55.1,49.7,29.78,South,169,0.0,1.0,82,0.00,CLR,,0.00,WeatherDisplay:10.37,2013-06-08 09:09:00,
2013-06-08 02:19:00,55.0,49.6,29.78,South,169,0.0,0.0,82,0.00,CLR,,0.00,WeatherDisplay:10.37,2013-06-08 09:19:00,
2013-06-08 02:29:00,54.9,49.5,29.78,South,169,0.0,2.0,82,0.00,CLR,,0.00,WeatherDisplay:10.37,2013-06-08 09:29:00,
2013-06-08 02:39:00,54.7,49.0,29.78,South,169,0.0,0.0,81,0.00,CLR,,0.00,WeatherDisplay:10.37,2013-06-08 09:39:00,
2013-06-08 02:49:00,54.5,49.1,29.78,South,169,0.0,0.0,82,0.00,CLR,,0.00,WeatherDisplay:10.37,2013-06-08 09:49:00,
2013-06-08 02:59:00,54.4,49.0,29.78,South,169,0.0,0.0,82,0.00,CLR,,0.00,WeatherDisplay:10.37,2013-06-08 09:59:00,
2013-06-08 03:04:00,54.4,49.0,29.78,South,169,0.0,0.0,82,0.00,CLR,,0.00,WeatherDisplay:10.37,2013-06-08 10:04:00,
2013-06-08 03:09:00,54.4,49.0,29.77,South,169,0.0,2.0,82,0.00,CLR,,0.00,WeatherDisplay:10.37,2013-06-08 10:09:00,
2013-06-08 03:19:00,54.2,48.9,29.78,South,169,0.0,0.0,82,0.00,CLR,,0.00,WeatherDisplay:10.37,2013-06-08 10:19:00,
2013-06-08 03:29:00,54.2,48.8,29.78,South,169,0.0,0.0,82,0.00,CLR,,0.00,WeatherDisplay:10.37,2013-06-08 10:29:00,
2013-06-08 03:39:00,54.2,49.1,29.77,South,169,0.0,1.0,83,0.00,CLR,,0.00,WeatherDisplay:10.37,2013-06-08 10:39:00,
2013-06-08 03:49:00,54.0,49.0,29.77,South,169,0.0,3.0,83,0.00,CLR,,0.00,WeatherDisplay:10.37,2013-06-08 10:49:00,
2013-06-08 03:59:00,53.9,48.5,29.77,South,169,0.0,4.0,82,0.00,CLR,,0.00,WeatherDisplay:10.37,2013-06-08 10:59:00,
2013-06-08 04:04:00,53.9,48.8,29.78,South,169,0.0,4.0,83,0.00,OVC,,0.00,WeatherDisplay:10.37,2013-06-08 11:04:00,
2013-06-08 04:09:00,53.8,48.8,29.78,South,169,0.0,0.0,83,0.00,OVC,,0.00,WeatherDisplay:10.37,2013-06-08 11:09:00,
2013-06-08 04:19:00,53.7,48.3,29.78,South,169,0.0,0.0,82,0.00,OVC,,0.00,WeatherDisplay:10.37,2013-06-08 11:19:00,
2013-06-08 04:29:00,53.7,48.3,29.78,South,169,0.0,0.0,82,0.00,OVC,,0.00,WeatherDisplay:10.37,2013-06-08 11:29:00,
2013-06-08 04:39:00,53.7,48.6,29.77,South,169,0.0,0.0,83,0.00,OVC,,0.00,WeatherDisplay:10.37,2013-06-08 11:39:00,
2013-06-08 04:49:00,53.7,48.3,29.78,South,169,0.0,4.0,82,0.00,OVC,,0.00,WeatherDisplay:10.37,2013-06-08 11:49:00,
2013-06-08 04:59:00,53.7,48.3,29.78,South,169,0.0,0.0,82,0.00,OVC,,0.00,WeatherDisplay:10.37,2013-06-08 11:59:00,
2013-06-08 05:04:00,53.7,48.3,29.78,South,169,0.0,0.0,82,0.00,CLR,,0.00,WeatherDisplay:10.37,2013-06-08 12:04:00,
2013-06-08 05:09:00,53.7,48.3,29.77,SSE,160,1.0,4.0,82,0.00,CLR,,0.00,WeatherDisplay:10.37,2013-06-08 12:09:00,
2013-06-08 05:19:00,53.6,48.2,29.77,ENE,68,0.0,0.0,82,0.00,CLR,,0.00,WeatherDisplay:10.37,2013-06-08 12:19:00,
2013-06-08 05:29:00,53.5,48.1,29.77,ENE,68,0.0,0.0,82,0.00,CLR,,0.00,WeatherDisplay:10.37,2013-06-08 12:29:00,
2013-06-08 05:39:00,53.5,48.1,29.77,ENE,68,0.0,0.0,82,0.00,CLR,,0.00,WeatherDisplay:10.37,2013-06-08 12:39:00,
2013-06-08 05:49:00,53.4,48.1,29.77,ENE,64,0.0,0.0,82,0.00,CLR,,0.00,WeatherDisplay:10.37,2013-06-08 12:49:00,
2013-06-08 05:59:00,53.4,48.0,29.77,NNE,31,0.0,0.0,82,0.00,CLR,,0.00,WeatherDisplay:10.37,2013-06-08 12:59:00,
2013-06-08 06:04:00,53.3,47.9,29.77,NNE,16,0.0,0.0,82,0.00,CLR,,0.00,WeatherDisplay:10.37,2013-06-08 13:04:00,
2013-06-08 06:09:00,53.3,47.9,29.77,NNE,16,0.0,0.0,82,0.00,CLR,,0.00,WeatherDisplay:10.37,2013-06-08 13:09:00,
2013-06-08 06:19:00,53.3,48.3,29.77,NNE,16,0.0,0.0,83,0.00,CLR,,0.00,WeatherDisplay:10.37,2013-06-08 13:19:00,
2013-06-08 06:29:00,53.4,48.0,29.77,NNE,16,0.0,0.0,82,0.00,CLR,,0.00,WeatherDisplay:10.37,2013-06-08 13:29:00,
2013-06-08 06:39:00,53.4,48.3,29.77,NNE,16,0.0,0.0,83,0.00,CLR,,0.00,WeatherDisplay:10.37,2013-06-08 13:39:00,
2013-06-08 06:49:00,53.4,48.4,29.77,NNE,16,0.0,0.0,83,0.00,CLR,,0.00,WeatherDisplay:10.37,2013-06-08 13:49:00,
2013-06-08 06:59:00,53.5,48.5,29.77,NNE,16,0.0,0.0,83,0.00,CLR,,0.00,WeatherDisplay:10.37,2013-06-08 13:59:00,
2013-06-08 07:04:00,53.5,48.5,29.77,NNE,16,0.0,0.0,83,0.00,OVC,,0.00,WeatherDisplay:10.37,2013-06-08 14:04:00,
2013-06-08 07:09:00,53.6,48.6,29.77,NNE,16,0.0,0.0,83,0.00,OVC,,0.00,WeatherDisplay:10.37,2013-06-08 14:09:00,
2013-06-08 07:19:00,53.8,49.1,29.77,NNE,16,0.0,0.0,84,0.00,OVC,,0.00,WeatherDisplay:10.37,2013-06-08 14:19:00,
2013-06-08 07:29:00,54.0,49.3,29.77,NNE,16,0.0,0.0,84,0.00,OVC,,0.00,WeatherDisplay:10.37,2013-06-08 14:29:00,
2013-06-08 07:39:00,54.2,49.5,29.77,NNE,16,0.0,0.0,84,0.00,OVC,,0.00,WeatherDisplay:10.37,2013-06-08 14:39:00,
2013-06-08 07:49:00,54.4,49.7,29.77,NNE,16,0.0,0.0,84,0.00,OVC,,0.00,WeatherDisplay:10.37,2013-06-08 14:49:00,
2013-06-08 07:59:00,54.7,49.9,29.78,NNE,16,0.0,0.0,84,0.00,OVC,,0.00,WeatherDisplay:10.37,2013-06-08 14:59:00,
2013-06-08 08:04:00,54.8,49.7,29.77,NNE,16,0.0,0.0,83,0.00,OVC,,0.00,WeatherDisplay:10.37,2013-06-08 15:04:00,
2013-06-08 08:09:00,54.9,49.8,29.77,NNE,16,0.0,0.0,83,0.00,OVC,,0.00,WeatherDisplay:10.37,2013-06-08 15:09:00,
2013-06-08 08:19:00,55.2,50.4,29.77,NNE,16,0.0,0.0,84,0.00,OVC,,0.00,WeatherDisplay:10.37,2013-06-08 15:19:00,
2013-06-08 08:29:00,55.6,50.8,29.78,NNE,16,0.0,1.0,84,0.00,OVC,,0.00,WeatherDisplay:10.37,2013-06-08 15:29:00,
2013-06-08 08:39:00,56.0,51.2,29.77,East,87,0.0,1.0,84,0.00,OVC,,0.00,WeatherDisplay:10.37,2013-06-08 15:39:00,
2013-06-08 08:49:00,56.5,51.4,29.78,ESE,112,0.0,3.0,83,0.00,OVC,,0.00,WeatherDisplay:10.37,2013-06-08 15:49:00,
2013-06-08 08:59:00,57.0,51.6,29.78,ESE,122,0.0,0.0,82,0.00,OVC,,0.00,WeatherDisplay:10.37,2013-06-08 15:59:00,
2013-06-08 09:04:00,57.2,51.8,29.78,SE,125,0.0,0.0,82,0.00,OVC,,0.00,WeatherDisplay:10.37,2013-06-08 16:04:00,
2013-06-08 09:09:00,57.5,52.0,29.78,SE,126,0.0,1.0,82,0.00,OVC,,0.00,WeatherDisplay:10.37,2013-06-08 16:09:00,
2013-06-08 09:19:00,57.9,52.1,29.78,SE,139,1.0,4.0,81,0.00,OVC,,0.00,WeatherDisplay:10.37,2013-06-08 16:19:00,
2013-06-08 09:29:00,58.4,52.3,29.78,SSE,165,1.0,5.0,80,0.00,OVC,,0.00,WeatherDisplay:10.37,2013-06-08 16:29:00,
2013-06-08 09:39:00,58.8,52.6,29.77,South,173,0.0,1.0,80,0.00,OVC,,0.00,WeatherDisplay:10.37,2013-06-08 16:39:00,
2013-06-08 09:49:00,59.2,52.7,29.78,SSW,200,2.0,7.0,79,0.00,OVC,,0.00,WeatherDisplay:10.37,2013-06-08 16:49:00,
2013-06-08 09:59:00,59.5,52.7,29.78,South,174,2.0,8.0,78,0.00,OVC,,0.00,WeatherDisplay:10.37,2013-06-08 16:59:00,
2013-06-08 10:04:00,59.7,52.8,29.78,SSE,157,1.0,5.0,78,0.00,OVC,,0.00,WeatherDisplay:10.37,2013-06-08 17:04:00,
2013-06-08 10:09:00,59.8,52.6,29.78,South,169,1.0,6.0,77,0.00,OVC,,0.00,WeatherDisplay:10.37,2013-06-08 17:09:00,
2013-06-08 10:19:00,60.0,52.8,29.78,South,186,1.0,7.0,77,0.00,OVC,,0.00,WeatherDisplay:10.37,2013-06-08 17:19:00,
2013-06-08 10:34:00,60.7,53.1,29.78,South,185,0.0,5.0,76,0.00,OVC,,0.00,WeatherDisplay:10.37,2013-06-08 17:34:00,
2013-06-08 10:39:00,61.0,53.4,29.78,South,176,5.0,7.0,76,0.00,OVC,,0.00,WeatherDisplay:10.37,2013-06-08 17:39:00,
2013-06-08 10:49:00,61.6,53.6,29.79,SSW,196,1.0,7.0,75,0.00,OVC,,0.00,WeatherDisplay:10.37,2013-06-08 17:49:00,
2013-06-08 10:59:00,62.2,53.5,29.79,SW,214,3.0,9.0,73,0.00,OVC,,0.00,WeatherDisplay:10.37,2013-06-08 17:59:00,
2013-06-08 11:04:00,62.5,53.7,29.80,SW,218,3.0,8.0,73,0.00,SCT,,0.00,WeatherDisplay:10.37,2013-06-08 18:04:00,
2013-06-08 11:09:00,62.8,53.6,29.79,SW,217,3.0,8.0,72,0.00,SCT,,0.00,WeatherDisplay:10.37,2013-06-08 18:09:00,
2013-06-08 11:19:00,63.2,53.6,29.80,SSW,213,2.0,7.0,71,0.00,SCT,,0.00,WeatherDisplay:10.37,2013-06-08 18:19:00,
2013-06-08 11:29:00,63.5,53.9,29.80,SW,221,3.0,7.0,71,0.00,SCT,,0.00,WeatherDisplay:10.37,2013-06-08 18:29:00,
2013-06-08 11:39:00,63.6,54.0,29.80,SSW,211,5.0,7.0,71,0.00,SCT,,0.00,WeatherDisplay:10.37,2013-06-08 18:39:00,
2013-06-08 11:49:00,63.7,54.1,29.80,SW,219,0.0,6.0,71,0.00,SCT,,0.00,WeatherDisplay:10.37,2013-06-08 18:49:00,
2013-06-08 11:59:00,64.0,54.1,29.80,SW,215,1.0,8.0,70,0.00,SCT,,0.00,WeatherDisplay:10.37,2013-06-08 18:59:00,
2013-06-08 12:04:00,64.1,54.1,29.80,SSW,212,2.0,6.0,70,0.00,CLR,,0.00,WeatherDisplay:10.37,2013-06-08 19:04:00,
2013-06-08 12:09:00,64.3,54.3,29.80,SSW,210,2.0,8.0,70,0.00,CLR,,0.00,WeatherDisplay:10.37,2013-06-08 19:09:00,
2013-06-08 12:19:00,64.6,54.6,29.80,SSW,211,6.0,12.0,70,0.00,CLR,,0.00,WeatherDisplay:10.37,2013-06-08 19:19:00,
2013-06-08 12:29:00,64.9,54.5,29.81,SW,234,3.0,7.0,69,0.00,CLR,,0.00,WeatherDisplay:10.37,2013-06-08 19:29:00,
2013-06-08 12:39:00,65.1,54.7,29.81,SSW,212,2.0,7.0,69,0.00,CLR,,0.00,WeatherDisplay:10.37,2013-06-08 19:39:00,
2013-06-08 12:49:00,65.3,54.9,29.81,SSW,212,1.0,8.0,69,0.00,CLR,,0.00,WeatherDisplay:10.37,2013-06-08 19:49:00,
2013-06-08 12:59:00,65.5,54.7,29.81,SSW,201,6.0,9.0,68,0.00,CLR,,0.00,WeatherDisplay:10.37,2013-06-08 19:59:00,
2013-06-08 13:04:00,65.6,54.8,29.81,SSW,197,3.0,10.0,68,0.00,CLR,,0.00,WeatherDisplay:10.37,2013-06-08 20:04:00,
2013-06-08 13:09:00,65.7,54.4,29.81,SSW,210,5.0,12.0,67,0.00,CLR,,0.00,WeatherDisplay:10.37,2013-06-08 20:09:00,
2013-06-08 13:19:00,65.9,54.6,29.82,SW,215,2.0,10.0,67,0.00,CLR,,0.00,WeatherDisplay:10.37,2013-06-08 20:19:00,
2013-06-08 13:29:00,66.0,54.3,29.82,SSW,205,6.0,12.0,66,0.00,CLR,,0.00,WeatherDisplay:10.37,2013-06-08 20:29:00,
2013-06-08 13:39:00,66.1,54.4,29.82,SSW,210,6.0,12.0,66,0.00,CLR,,0.00,WeatherDisplay:10.37,2013-06-08 20:39:00,
2013-06-08 13:49:00,66.1,54.4,29.82,SW,217,6.0,13.0,66,0.00,CLR,,0.00,WeatherDisplay:10.37,2013-06-08 20:49:00,
2013-06-08 13:59:00,66.1,54.4,29.82,SW,222,5.0,12.0,66,0.00,CLR,,0.00,WeatherDisplay:10.37,2013-06-08 20:59:00,
2013-06-08 14:04:00,66.0,54.4,29.82,SW,227,6.0,12.0,66,0.00,BKN,,0.00,WeatherDisplay:10.37,2013-06-08 21:04:00,
2013-06-08 14:09:00,66.0,54.3,29.82,SW,218,6.0,13.0,66,0.00,BKN,,0.00,WeatherDisplay:10.37,2013-06-08 21:09:00,
2013-06-08 14:19:00,65.9,54.2,29.82,SSW,209,6.0,13.0,66,0.00,BKN,,0.00,WeatherDisplay:10.37,2013-06-08 21:19:00,
2013-06-08 14:29:00,65.8,54.1,29.82,SW,229,2.0,10.0,66,0.00,BKN,,0.00,WeatherDisplay:10.37,2013-06-08 21:29:00,
2013-06-08 14:39:00,65.7,54.0,29.82,SW,217,2.0,12.0,66,0.00,BKN,,0.00,WeatherDisplay:10.37,2013-06-08 21:39:00,
2013-06-08 14:49:00,65.5,53.8,29.82,WSW,242,2.0,10.0,66,0.00,BKN,,0.00,WeatherDisplay:10.37,2013-06-08 21:49:00,
2013-06-08 14:59:00,65.3,54.1,29.83,SSW,210,2.0,12.0,67,0.00,BKN,,0.00,WeatherDisplay:10.37,2013-06-08 21:59:00,
2013-06-08 15:04:00,65.2,54.0,29.83,WSW,238,6.0,12.0,67,0.00,OVC,,0.00,WeatherDisplay:10.37,2013-06-08 22:04:00,
2013-06-08 15:09:00,65.1,53.9,29.83,SW,230,2.0,12.0,67,0.00,OVC,,0.00,WeatherDisplay:10.37,2013-06-08 22:09:00,
2013-06-08 15:19:00,65.0,53.8,29.83,SW,225,7.0,14.0,67,0.00,OVC,,0.00,WeatherDisplay:10.37,2013-06-08 22:19:00,
2013-06-08 15:29:00,64.8,53.6,29.83,SW,214,7.0,13.0,67,0.00,OVC,,0.00,WeatherDisplay:10.37,2013-06-08 22:29:00,
2013-06-08 15:39:00,64.6,53.8,29.83,SW,230,5.0,10.0,68,0.00,OVC,,0.00,WeatherDisplay:10.37,2013-06-08 22:39:00,
2013-06-08 15:49:00,64.4,53.6,29.83,WSW,239,3.0,12.0,68,0.00,OVC,,0.00,WeatherDisplay:10.37,2013-06-08 22:49:00,
2013-06-08 15:59:00,64.2,53.8,29.83,SW,230,2.0,12.0,69,0.00,OVC,,0.00,WeatherDisplay:10.37,2013-06-08 22:59:00,
2013-06-08 16:04:00,64.1,53.8,29.83,SW,231,1.0,12.0,69,0.00,OVC,,0.00,WeatherDisplay:10.37,2013-06-08 23:04:00,
2013-06-08 16:09:00,64.1,54.1,29.83,WSW,248,1.0,9.0,70,0.00,OVC,,0.00,WeatherDisplay:10.37,2013-06-08 23:09:00,
2013-06-08 16:19:00,64.0,54.0,29.83,WSW,251,0.0,2.0,70,0.00,OVC,,0.00,WeatherDisplay:10.37,2013-06-08 23:19:00,
2013-06-08 16:29:00,64.0,54.0,29.83,SW,231,2.0,7.0,70,0.00,OVC,,0.00,WeatherDisplay:10.37,2013-06-08 23:29:00,
2013-06-08 16:39:00,64.1,54.1,29.83,SSW,212,2.0,9.0,70,0.00,OVC,,0.00,WeatherDisplay:10.37,2013-06-08 23:39:00,
2013-06-08 16:49:00,64.1,53.7,29.83,SW,214,3.0,7.0,69,0.00,OVC,,0.00,WeatherDisplay:10.37,2013-06-08 23:49:00,
2013-06-08 16:59:00,64.1,54.1,29.83,WSW,254,2.0,9.0,70,0.00,OVC,,0.00,WeatherDisplay:10.37,2013-06-08 23:59:00,
2013-06-08 17:04:00,64.1,54.1,29.83,WSW,248,1.0,9.0,70,0.00,OVC,,0.00,WeatherDisplay:10.37,2013-06-09 00:04:00,
2013-06-08 17:09:00,64.0,53.6,29.83,WSW,245,1.0,5.0,69,0.00,OVC,,0.00,WeatherDisplay:10.37,2013-06-09 00:09:00,
2013-06-08 17:19:00,63.9,53.9,29.83,WSW,241,3.0,9.0,70,0.00,OVC,,0.00,WeatherDisplay:10.37,2013-06-09 00:19:00,
2013-06-08 17:29:00,63.6,53.6,29.83,WSW,249,2.0,7.0,70,0.00,OVC,,0.00,WeatherDisplay:10.37,2013-06-09 00:29:00,
2013-06-08 17:39:00,63.5,53.5,29.83,West,260,0.0,7.0,70,0.00,OVC,,0.00,WeatherDisplay:10.37,2013-06-09 00:39:00,
2013-06-08 17:49:00,63.4,53.4,29.82,WSW,257,1.0,9.0,70,0.00,OVC,,0.00,WeatherDisplay:10.37,2013-06-09 00:49:00,
2013-06-08 17:59:00,63.3,53.8,29.82,West,267,0.0,0.0,71,0.00,OVC,,0.00,WeatherDisplay:10.37,2013-06-09 00:59:00,
2013-06-08 18:04:00,63.3,53.7,29.83,WSW,247,0.0,7.0,71,0.00,OVC,,0.00,WeatherDisplay:10.37,2013-06-09 01:04:00,
2013-06-08 18:09:00,63.2,53.6,29.83,SSW,205,2.0,7.0,71,0.00,OVC,,0.00,WeatherDisplay:10.37,2013-06-09 01:09:00,
2013-06-08 18:19:00,63.2,53.6,29.82,SW,225,0.0,1.0,71,0.00,OVC,,0.00,WeatherDisplay:10.37,2013-06-09 01:19:00,
2013-06-08 18:29:00,63.0,53.4,29.82,WSW,244,0.0,6.0,71,0.00,OVC,,0.00,WeatherDisplay:10.37,2013-06-09 01:29:00,
2013-06-08 18:39:00,62.9,53.4,29.82,WSW,237,0.0,6.0,71,0.00,OVC,,0.00,WeatherDisplay:10.37,2013-06-09 01:39:00,
2013-06-08 18:49:00,62.8,53.3,29.82,SW,229,0.0,4.0,71,0.00,OVC,,0.00,WeatherDisplay:10.37,2013-06-09 01:49:00,
2013-06-08 18:59:00,62.7,53.5,29.83,SW,231,1.0,6.0,72,0.00,OVC,,0.00,WeatherDisplay:10.37,2013-06-09 01:59:00,
2013-06-08 19:04:00,62.5,53.4,29.83,WSW,249,3.0,6.0,72,0.00,OVC,,0.00,WeatherDisplay:10.37,2013-06-09 02:04:00,
2013-06-08 19:09:00,62.4,53.3,29.83,West,272,0.0,7.0,72,0.00,OVC,,0.00,WeatherDisplay:10.37,2013-06-09 02:09:00,
2013-06-08 19:19:00,62.2,53.0,29.83,WNW,299,0.0,0.0,72,0.00,OVC,,0.00,WeatherDisplay:10.37,2013-06-09 02:19:00,
2013-06-08 19:29:00,61.9,53.1,29.83,WSW,247,0.0,7.0,73,0.00,OVC,,0.00,WeatherDisplay:10.37,2013-06-09 02:29:00,
2013-06-08 19:39:00,61.7,53.0,29.83,West,265,0.0,4.0,73,0.00,OVC,,0.00,WeatherDisplay:10.37,2013-06-09 02:39:00,
2013-06-08 19:49:00,61.6,52.8,29.83,West,277,0.0,5.0,73,0.00,OVC,,0.00,WeatherDisplay:10.37,2013-06-09 02:49:00,
2013-06-08 19:59:00,61.3,53.0,29.83,WSW,244,0.0,4.0,74,0.00,OVC,,0.00,WeatherDisplay:10.37,2013-06-09 02:59:00,
2013-06-08 20:04:00,61.3,52.9,29.83,SW,233,0.0,8.0,74,0.00,OVC,,0.00,WeatherDisplay:10.37,2013-06-09 03:04:00,
2013-06-08 20:09:00,61.2,52.8,29.84,WSW,244,0.0,3.0,74,0.00,OVC,,0.00,WeatherDisplay:10.37,2013-06-09 03:09:00,
2013-06-08 20:19:00,61.0,52.6,29.84,WSW,240,0.0,1.0,74,0.00,OVC,,0.00,WeatherDisplay:10.37,2013-06-09 03:19:00,
2013-06-08 20:29:00,60.8,52.8,29.84,WSW,240,0.0,3.0,75,0.00,OVC,,0.00,WeatherDisplay:10.37,2013-06-09 03:29:00,
2013-06-08 20:39:00,60.5,52.9,29.84,West,260,1.0,6.0,76,0.00,OVC,,0.00,WeatherDisplay:10.37,2013-06-09 03:39:00,
2013-06-08 20:49:00,60.3,52.7,29.85,West,277,0.0,0.0,76,0.00,OVC,,0.00,WeatherDisplay:10.37,2013-06-09 03:49:00,
2013-06-08 20:54:00,60.2,52.9,29.85,WSW,255,0.0,0.0,77,0.00,OVC,,0.00,WeatherDisplay:10.37,2013-06-09 03:54:00,
2013-06-08 20:59:00,60.1,52.8,29.85,WSW,244,0.0,1.0,77,0.00,OVC,,0.00,WeatherDisplay:10.37,2013-06-09 03:59:00,
2013-06-08 21:04:00,60.0,53.1,29.85,WSW,250,0.0,0.0,78,0.00,OVC,,0.00,WeatherDisplay:10.37,2013-06-09 04:04:00,
2013-06-08 21:09:00,59.9,53.0,29.85,WSW,256,0.0,0.0,78,0.00,OVC,,0.00,WeatherDisplay:10.37,2013-06-09 04:09:00,
2013-06-08 21:14:00,59.8,52.9,29.85,WSW,256,0.0,0.0,78,0.00,OVC,,0.00,WeatherDisplay:10.37,2013-06-09 04:14:00,
2013-06-08 21:19:00,59.7,52.8,29.86,WSW,257,0.0,0.0,78,0.00,OVC,,0.00,WeatherDisplay:10.37,2013-06-09 04:19:00,
2013-06-08 21:29:00,59.5,53.0,29.86,WSW,257,0.0,0.0,79,0.00,OVC,,0.00,WeatherDisplay:10.37,2013-06-09 04:29:00,
2013-06-08 21:39:00,59.3,53.1,29.86,WSW,257,0.0,0.0,80,0.00,OVC,,0.00,WeatherDisplay:10.37,2013-06-09 04:39:00,
2013-06-08 21:49:00,59.2,53.4,29.86,West,259,0.0,0.0,81,0.00,OVC,,0.00,WeatherDisplay:10.37,2013-06-09 04:49:00,
2013-06-08 21:59:00,59.1,53.6,29.86,West,262,0.0,0.0,82,0.00,OVC,,0.00,WeatherDisplay:10.37,2013-06-09 04:59:00,
2013-06-08 22:04:00,59.0,53.5,29.86,West,262,0.0,0.0,82,0.00,OVC,,0.00,WeatherDisplay:10.37,2013-06-09 05:04:00,
2013-06-08 22:09:00,59.0,53.5,29.86,West,262,0.0,0.0,82,0.00,OVC,,0.00,WeatherDisplay:10.37,2013-06-09 05:09:00,
2013-06-08 22:19:00,59.0,53.5,29.87,West,262,0.0,1.0,82,0.00,OVC,,0.00,WeatherDisplay:10.37,2013-06-09 05:19:00,
2013-06-08 22:29:00,59.0,53.5,29.86,West,259,0.0,2.0,82,0.00,OVC,,0.00,WeatherDisplay:10.37,2013-06-09 05:29:00,
2013-06-08 22:39:00,58.9,53.7,29.86,West,263,0.0,0.0,83,0.00,OVC,,0.00,WeatherDisplay:10.37,2013-06-09 05:39:00,
2013-06-08 22:49:00,58.9,53.7,29.86,WSW,256,0.0,3.0,83,0.00,OVC,,0.00,WeatherDisplay:10.37,2013-06-09 05:49:00,
2013-06-08 22:59:00,58.8,53.7,29.86,WSW,240,0.0,5.0,83,0.00,OVC,,0.00,WeatherDisplay:10.37,2013-06-09 05:59:00,
2013-06-08 23:04:00,58.8,53.6,29.86,WSW,243,0.0,0.0,83,0.00,OVC,,0.00,WeatherDisplay:10.37,2013-06-09 06:04:00,
2013-06-08 23:09:00,58.8,53.6,29.86,WSW,243,0.0,0.0,83,0.00,OVC,,0.00,WeatherDisplay:10.37,2013-06-09 06:09:00,
2013-06-08 23:19:00,58.7,53.6,29.86,WNW,295,0.0,1.0,83,0.01,RA,,0.01,WeatherDisplay:10.37,2013-06-09 06:19:00,
2013-06-08 23:29:00,58.7,53.5,29.86,NW,316,0.0,0.0,83,0.00,OVC,,0.01,WeatherDisplay:10.37,2013-06-09 06:29:00,
2013-06-08 23:39:00,58.7,53.5,29.86,NW,304,0.0,0.0,83,0.00,OVC,,0.01,WeatherDisplay:10.37,2013-06-09 06:39:00,
2013-06-08 23:49:00,58.6,53.8,29.86,WNW,284,0.0,6.0,84,0.00,OVC,,0.01,WeatherDisplay:10.37,2013-06-09 06:49:00,
2013-06-08 23:59:00,58.5,53.7,29.86,WNW,287,0.0,3.0,84,0.00,RA,,0.00,WeatherDisplay:10.37,2013-06-09 06:59:00,